Lemoore, CA

9:02 PM PDT on September 26, 2016 (GMT -0700)
Lemoore Naval Air Station

Weather History for KNLC - November, 2013

Change the Weather History Date:

Thursday, November 28, 2013

  Actual Average Record
Temperature  
Mean Temperature 58 °F -  
Max Temperature 71 °F 57 °F 72 °F (2014)
Min Temperature 46 °F 37 °F 28 °F (2005)
Degree Days  
Heating Degree Days 6    
Growing Degree Days 8 (Base 50)    
Moisture  
Dew Point 41 °F    
Average Humidity 63    
Maximum Humidity 77    
Minimum Humidity 32    
Precipitation  
Precipitation 0.00 in - - ()
Sea Level Pressure  
Sea Level Pressure 29.95 in    
Wind  
Wind Speed 7 mph (NW)    
Max Wind Speed 12 mph    
Max Gust Speed -    
Visibility 4 miles    
Events      
Averages and records for this station are not official NWS values.
T = Trace of Precipitation, MM = Missing Value Source: NWS Daily Summary

Daily Weather History Graph

Daily Weather History Graph

Search for Another Location

Airport or City:

Trip Planner

Search our weather history database for the weather conditions in past years. The results will help you decide how hot, cold, wet, or windy it might be!

Date:

Astronomy

Nov. 28, 2013 Rise Set
Actual Time 6:50 AM PST 4:45 PM PST
Civil Twilight 6:22 AM PST 5:13 PM PST
Nautical Twilight 5:50 AM PST 5:45 PM PST
Astronomical Twilight 5:19 AM PST 6:16 PM PST
Moon 2:05 AM PST (11/28) 1:51 PM PST (11/28)
Length of Visible Light 10h 51m
Length of Day
9h 55m
Waning Crescent, 21% of the Moon is Illuminated
Nov 28
Waning Crescent
Dec 2
New
Dec 9
First Quarter
Dec 17
Full
Dec 25
Last Quarter

Hourly Weather History & Observations

Time (PST) Temp. Windchill Dew Point Humidity Pressure Visibility Wind Dir Wind Speed Gust Speed Precip Events Conditions
12:14 AM 50.0 °F - 42.1 °F 74% 29.89 in 2.5 mi WNW 11.5 mph - N/A   Haze
12:56 AM 50.0 °F - 42.1 °F 74% 29.88 in 2.5 mi NW 9.2 mph - N/A   Haze
1:33 AM 48.9 °F - 41.0 °F 74% 29.89 in 3.0 mi NW 8.1 mph - N/A   Haze
1:51 AM 50.0 °F - 41.0 °F 71% 29.90 in 2.5 mi NNW 4.6 mph - N/A   Haze
1:56 AM 50.0 °F - 42.1 °F 74% 29.90 in 2.5 mi NNW 6.9 mph - N/A   Haze
2:56 AM 48.0 °F - 41.0 °F 77% 29.90 in 2.5 mi North 5.8 mph - N/A   Haze
3:56 AM 48.0 °F - 41.0 °F 77% 29.90 in 2.5 mi WNW 5.8 mph - N/A   Haze
4:56 AM 46.0 °F 42.5 °F 39.0 °F 76% 29.89 in 2.5 mi WNW 6.9 mph - N/A   Haze
5:24 AM 46.0 °F 41.4 °F 37.9 °F 73% 29.89 in 3.0 mi WNW 9.2 mph - N/A   Haze
5:38 AM 46.0 °F 41.4 °F 39.0 °F 76% 29.89 in 2.5 mi NW 9.2 mph - N/A   Haze
5:56 AM 46.9 °F - 39.9 °F 77% 29.90 in 2.5 mi NW 6.9 mph - N/A   Haze
6:05 AM 48.0 °F - 41.0 °F 77% 29.90 in 3.0 mi NW 9.2 mph - N/A   Haze
6:56 AM 46.9 °F - 39.0 °F 74% 29.92 in 3.0 mi NW 6.9 mph - N/A   Haze
7:07 AM 46.9 °F - 39.0 °F 74% 29.93 in 2.0 mi Calm Calm - N/A   Haze
7:56 AM 50.0 °F - 41.0 °F 71% 29.95 in 2.0 mi Calm Calm - N/A   Haze
8:56 AM 53.1 °F - 42.1 °F 66% 29.97 in 2.5 mi Calm Calm - N/A   Haze
9:23 AM 55.0 °F - 43.0 °F 64% 29.97 in 3.0 mi North 9.2 mph - N/A   Haze
9:56 AM 55.9 °F - 44.1 °F 64% 29.98 in 3.0 mi NNE 6.9 mph - N/A   Haze
10:56 AM 57.9 °F - 45.0 °F 62% 29.99 in 3.0 mi Calm Calm - N/A   Haze
11:56 AM 64.9 °F - 44.1 °F 47% 29.97 in 4.0 mi Calm Calm - N/A   Haze
12:56 PM 68.0 °F - 41.0 °F 37% 29.95 in 6.0 mi WNW 5.8 mph - N/A   Haze
1:56 PM 69.1 °F - 39.9 °F 35% 29.95 in 6.0 mi Variable 3.5 mph - N/A   Haze
2:56 PM 71.1 °F - 39.9 °F 32% 29.94 in 7.0 mi WNW 4.6 mph - N/A   Clear
3:56 PM 69.1 °F - 41.0 °F 36% 29.96 in 6.0 mi NNW 6.9 mph - N/A   Haze
4:56 PM 66.0 °F - 42.1 °F 42% 29.97 in 7.0 mi North 6.9 mph - N/A   Clear
5:56 PM 63.0 °F - 41.0 °F 45% 29.99 in 8.0 mi North 5.8 mph - N/A   Clear
6:56 PM 61.0 °F - 42.1 °F 50% 30.01 in 7.0 mi West 6.9 mph - N/A   Clear
7:56 PM 55.0 °F - 39.9 °F 57% 30.03 in 7.0 mi WSW 6.9 mph - N/A   Clear
8:56 PM 53.1 °F - 39.9 °F 61% 30.05 in 6.0 mi WNW 6.9 mph - N/A   Haze
9:56 PM 50.0 °F - 37.0 °F 61% 30.07 in 7.0 mi West 6.9 mph - N/A   Clear
10:56 PM 48.0 °F - 36.0 °F 63% 30.08 in 6.0 mi WNW 6.9 mph - N/A   Haze
11:56 PM 46.9 °F - 36.0 °F 66% 30.08 in 7.0 mi NNW 4.6 mph - N/A   Clear